Regional Weather Roundup
Issued by NWS

Home | Current Version | Previous Version | Text Only | Print | Product List | Glossary Off
Versions: 1 2 3 4 5 6 7 8 9 10 11 12 13 14 15 16 17 18 19 20 21 22 23 24 25 26 27 28 29 30 31 32 33 34 35 36 37 38 39 40 41 42 43 44 45 46 47 48 49 50

000
ASUS45 KABQ 211001
RWRNM
NEW MEXICO REGIONAL WEATHER ROUNDUP
NATIONAL WEATHER SERVICE ALBUQUERQUE NM
300 AM MST SUN JAN 21 2018

NOTE: "FAIR" MEANS FEW OR NO CLOUDS BELOW 12,000 FEET AGL WITH NO
       SIGNIFICANT WEATHER OR OBSTRUCTIONS TO VISION.

      THIS PRODUCT IS RELEASED AS TWO VERSIONS.  ONE VERSION NEAR
      THE TOP OF THE HOUR CONTAINING PRELIMINARY DATA FROM ALBUQUERQUE
      AND OTHER STATIONS.  A FINAL VERSION WITH ADDITIONAL DATA IS
      ISSUED ABOUT 10 MINUTES AFTER THE HOUR.

NMZ501-503-504-510>518-211100-
NORTHWEST PLATEAU/NORTHCENTRAL MOUNTAINS

CITY           SKY/WX    TMP DP  RH WIND       PRES   REMARKS
FARMINGTON     FAIR      29  26  89 S6        29.78S WCI  23
LOS ALAMOS     FAIR      29  16  57 S5        29.79S WCI  24
SANTA FE       FAIR      27  26  96 SE6       29.81F WCI  20
TAOS           FLURRIES  27  24  89 S9        29.82F WCI  18
ANGEL FIRE     LGT SNOW  24  20  85 W22G28    29.74F WCI   9

$$
NMZ402-403-502-505>509-211100-
WESTCENTRAL MOUNTAINS/SOUTHWEST MOUNTAINS

CITY           SKY/WX    TMP DP  RH WIND       PRES   REMARKS
GALLUP         LGT SNOW  25  22  88 SW16      29.81S FOG     WCI  12
GRANTS         LGT SNOW  26  19  76 SW16G31   29.84F WCI  13
SILVER CITY    FAIR      31  26  78 W18       29.96R WCI  20

$$
NMZ407-409-411-412-211100-
SOUTHERN DESERTS

CITY           SKY/WX    TMP DP  RH WIND       PRES   REMARKS
DEMING         FAIR      39  25  57 W22G30    29.94S WCI  29
LAS CRUCES     CLOUDY    43  26  50 W16G22    29.95R
HOLLOMAN AFB   CLOUDY    48  29  47 SW21G26   29.92R
ALAMOGORDO     CLOUDY    48  28  46 W22G30    29.91R
T OR C         FAIR      41  16  36 W18G30    29.88R

$$
NMZ519>523-211100-
CENTRAL VALLEYS/CENTRAL HIGHLANDS

CITY           SKY/WX    TMP DP  RH WIND       PRES   REMARKS
ALBUQUERQUE    FAIR      35  24  64 W7        29.86S WCI  29
MORIARTY ARPT  FAIR      29  26  89 W9        29.84S WCI  20
CLINES CORNERS MOCLDY    26  23  88 W24       29.78F WCI  11
BELEN          NOT AVBL
SOCORRO        FAIR      37  18  46 NW7       29.87R WCI  31

$$
NMZ524>526-539-540-211100-
SOUTHCENTRAL MOUNTAINS

CITY           SKY/WX    TMP DP  RH WIND       PRES   REMARKS
RUIDOSO        NOT AVBL

$$
NMZ527>531-211100-
NORTHEAST HIGHLANDS/NORTHEAST PLAINS

CITY           SKY/WX    TMP DP  RH WIND       PRES   REMARKS
LAS VEGAS      CLOUDY    35  20  54 SW18G31   29.74R WCI  24
RATON          CLOUDY    36  19  50 W8        29.66S WCI  30
CLAYTON        FAIR      40  17  39 SW9       29.67S WCI  34

$$
NMZ532>537-211100-
EASTCENTRAL PLAINS

CITY           SKY/WX    TMP DP  RH WIND       PRES   REMARKS
TUCUMCARI      FAIR      45  19  35 SW12      29.68S
CANNON AFB     NOT AVBL
CLOVIS AIRPORT FAIR      41  19  41 SW12      29.74F

$$
NMZ028-029-538-211100-
SOUTHEAST PLAINS

CITY           SKY/WX    TMP DP  RH WIND       PRES   REMARKS
ROSWELL        FAIR      49  23  36 SW9       29.75S
ARTESIA        FAIR      55  25  30 S14G21    29.78S
CARLSBAD       FAIR      57  26  30 SW17      29.76F
HOBBS          FAIR      37  25  60 W5        29.79F WCI  34


$$




USA.gov is the U.S. government's official web portal to all federal, state and local government web resources and services.